TimeCDT,TemperatureF,Dew PointF,Humidity,Sea Level PressureIn,VisibilityMPH,Wind Direction,Wind SpeedMPH,Gust SpeedMPH,PrecipitationIn,Events,Conditions,WindDirDegrees,DateUTC
12:15 AM,47.1,40.6,78,29.97,10.0,WSW,6.9,-,N/A,,Clear,240,2013-05-08 05:15:00
12:35 AM,47.7,40.5,76,29.96,10.0,WSW,6.9,-,N/A,,Clear,240,2013-05-08 05:35:00
12:55 AM,46.2,40.3,80,29.98,10.0,East,10.4,-,N/A,,Mostly Cloudy,80,2013-05-08 05:55:00
1:15 AM,50.4,41.9,73,30.00,10.0,SE,8.1,-,N/A,,Overcast,140,2013-05-08 06:15:00
1:35 AM,50.9,41.0,69,30.00,10.0,SSE,8.1,16.1,N/A,,Mostly Cloudy,160,2013-05-08 06:35:00
1:55 AM,48.2,40.8,76,30.00,10.0,Calm,Calm,-,N/A,,Scattered Clouds,0,2013-05-08 06:55:00
2:15 AM,47.1,40.5,78,29.98,10.0,WSW,6.9,-,N/A,Thunderstorm,Scattered Clouds,250,2013-05-08 07:15:00
2:35 AM,45.9,40.1,80,29.97,10.0,Calm,Calm,-,N/A,,Clear,0,2013-05-08 07:35:00
2:55 AM,46.6,40.3,79,29.95,10.0,SSW,3.5,-,N/A,,Clear,210,2013-05-08 07:55:00
3:15 AM,44.1,38.7,81,29.94,10.0,Calm,Calm,-,N/A,,Clear,0,2013-05-08 08:15:00
3:35 AM,42.3,38.1,85,29.94,10.0,Calm,Calm,-,N/A,,Clear,0,2013-05-08 08:35:00
3:55 AM,44.1,39.2,83,29.94,10.0,WSW,4.6,-,N/A,,Clear,250,2013-05-08 08:55:00
4:15 AM,43.9,39.2,84,29.94,10.0,West,3.5,-,N/A,,Clear,270,2013-05-08 09:15:00
4:35 AM,43.3,39.0,85,29.94,10.0,West,4.6,-,N/A,,Clear,260,2013-05-08 09:35:00
4:55 AM,42.3,37.9,85,29.94,10.0,WNW,3.5,-,N/A,,Clear,290,2013-05-08 09:55:00
5:15 AM,40.5,37.0,88,29.94,10.0,Calm,Calm,-,N/A,,Clear,0,2013-05-08 10:15:00
5:35 AM,39.4,36.1,88,29.94,10.0,Calm,Calm,-,N/A,,Clear,0,2013-05-08 10:35:00
5:55 AM,41.0,37.8,88,29.94,10.0,West,5.8,-,N/A,,Clear,280,2013-05-08 10:55:00
6:15 AM,39.9,37.0,89,29.94,10.0,SW,6.9,-,N/A,,Clear,220,2013-05-08 11:15:00
6:35 AM,39.2,36.7,91,29.94,10.0,Calm,Calm,-,N/A,,Clear,0,2013-05-08 11:35:00
6:55 AM,39.6,36.5,89,29.95,10.0,SE,5.8,-,N/A,,Clear,140,2013-05-08 11:55:00
7:15 AM,40.1,37.6,91,29.95,10.0,SW,5.8,-,N/A,,Clear,230,2013-05-08 12:15:00
7:35 AM,41.0,38.1,89,29.96,10.0,Calm,Calm,-,N/A,,Clear,0,2013-05-08 12:35:00
7:55 AM,43.2,39.4,86,29.97,10.0,North,3.5,-,N/A,,Clear,360,2013-05-08 12:55:00
8:15 AM,48.7,42.4,79,29.97,10.0,NNW,5.8,-,N/A,,Clear,330,2013-05-08 13:15:00
8:35 AM,51.4,41.5,69,29.97,10.0,Calm,Calm,-,N/A,,Clear,0,2013-05-08 13:35:00
8:55 AM,51.8,42.4,70,29.97,10.0,North,4.6,-,N/A,,Clear,360,2013-05-08 13:55:00
9:15 AM,-9999,-9999,N/A,-9999,-9999.0,North,-9999.0,-,N/A,,Unknown,0,2013-05-08 14:15:00
9:35 AM,55.8,40.3,56,29.98,-9999.0,Calm,Calm,-,0.03,,Clear,0,2013-05-08 14:35:00
9:55 AM,58.1,41.2,53,29.98,10.0,North,8.1,-,0.03,,Clear,360,2013-05-08 14:55:00
10:15 AM,-9999,-9999,N/A,29.99,10.0,North,8.1,-,N/A,,Clear,360,2013-05-08 15:15:00
10:35 AM,62.6,41.5,46,29.99,10.0,North,9.2,-,N/A,,Clear,10,2013-05-08 15:35:00
10:55 AM,64.2,40.6,42,29.99,10.0,NE,8.1,-,N/A,,Clear,40,2013-05-08 15:55:00
11:15 AM,63.9,38.7,39,29.99,10.0,NE,10.4,-,N/A,,Clear,40,2013-05-08 16:15:00
11:35 AM,65.1,38.7,38,29.99,10.0,NE,8.1,-,N/A,,Clear,40,2013-05-08 16:35:00
11:55 AM,67.3,39.4,36,30.00,10.0,NE,11.5,17.3,N/A,,Clear,40,2013-05-08 16:55:00
12:15 PM,66.0,38.8,37,30.00,10.0,NE,12.7,18.4,N/A,,Scattered Clouds,40,2013-05-08 17:15:00
12:35 PM,65.8,39.6,38,30.00,10.0,NE,9.2,-,N/A,,Mostly Cloudy,40,2013-05-08 17:35:00
12:55 PM,68.0,37.8,33,29.99,10.0,East,10.4,17.3,N/A,,Scattered Clouds,90,2013-05-08 17:55:00
1:15 PM,68.9,36.5,30,29.99,10.0,NE,9.2,19.6,N/A,,Clear,50,2013-05-08 18:15:00
1:35 PM,67.5,37.8,34,29.98,10.0,ENE,9.2,21.9,N/A,,Clear,70,2013-05-08 18:35:00
1:55 PM,70.0,36.5,29,29.98,10.0,East,10.4,-,N/A,,Scattered Clouds,100,2013-05-08 18:55:00
2:15 PM,68.9,35.2,29,29.97,10.0,ENE,8.1,-,N/A,,Mostly Cloudy,70,2013-05-08 19:15:00
2:35 PM,67.8,35.4,30,29.97,10.0,ENE,13.8,-,N/A,,Scattered Clouds,60,2013-05-08 19:35:00
2:55 PM,70.7,36.3,28,29.97,10.0,ENE,13.8,19.6,N/A,,Scattered Clouds,70,2013-05-08 19:55:00
3:35 PM,67.1,40.5,38,29.96,10.0,ESE,15.0,-,N/A,,Overcast,110,2013-05-08 20:35:00
3:55 PM,65.5,40.5,40,29.96,10.0,ESE,16.1,-,N/A,,Overcast,110,2013-05-08 20:55:00
4:15 PM,66.2,39.7,38,29.96,10.0,ESE,12.7,-,N/A,,Mostly Cloudy,120,2013-05-08 21:15:00
4:35 PM,65.3,42.1,43,29.97,10.0,East,17.3,-,N/A,,Mostly Cloudy,100,2013-05-08 21:35:00
4:55 PM,61.2,42.8,51,29.97,10.0,ESE,18.4,25.3,N/A,,Overcast,110,2013-05-08 21:55:00
5:15 PM,61.2,44.8,55,29.97,10.0,ESE,15.0,-,N/A,,Overcast,120,2013-05-08 22:15:00
5:35 PM,60.3,43.0,53,29.98,10.0,East,15.0,-,N/A,,Overcast,100,2013-05-08 22:35:00
5:55 PM,58.1,42.8,57,29.99,10.0,SE,16.1,-,N/A,,Overcast,130,2013-05-08 22:55:00
6:15 PM,59.0,43.2,56,30.00,10.0,ESE,10.4,-,N/A,,Overcast,120,2013-05-08 23:15:00
6:35 PM,59.9,42.6,53,30.00,10.0,ESE,8.1,-,N/A,,Overcast,110,2013-05-08 23:35:00
6:55 PM,58.8,43.5,57,30.01,10.0,South,17.3,23.0,N/A,,Overcast,170,2013-05-08 23:55:00
7:15 PM,53.6,44.8,72,30.01,10.0,SSW,15.0,-,N/A,,Overcast,200,2013-05-09 00:15:00
7:35 PM,52.0,46.2,81,30.02,10.0,SSW,16.1,-,N/A,Rain,Light Rain,200,2013-05-09 00:35:00
7:55 PM,51.1,47.3,87,30.03,10.0,SSW,10.4,-,N/A,,Overcast,200,2013-05-09 00:55:00
8:15 PM,51.1,46.0,83,30.03,10.0,SSW,9.2,-,N/A,,Mostly Cloudy,210,2013-05-09 01:15:00
8:35 PM,50.9,46.4,85,30.05,10.0,West,8.1,-,N/A,,Mostly Cloudy,260,2013-05-09 01:35:00
8:55 PM,50.9,46.6,85,30.06,10.0,West,6.9,-,N/A,,Overcast,260,2013-05-09 01:55:00
9:15 PM,50.2,46.4,87,30.06,10.0,West,8.1,-,N/A,,Overcast,270,2013-05-09 02:15:00
9:35 PM,49.5,45.5,86,30.06,10.0,West,8.1,-,N/A,,Mostly Cloudy,270,2013-05-09 02:35:00
10:15 PM,48.2,45.0,89,30.06,10.0,WNW,10.4,-,N/A,,Clear,290,2013-05-09 03:15:00
10:35 PM,47.3,44.6,90,30.07,10.0,WNW,13.8,-,N/A,,Scattered Clouds,290,2013-05-09 03:35:00
11:35 PM,47.3,44.2,89,30.08,10.0,NW,9.2,-,N/A,,Scattered Clouds,310,2013-05-09 04:35:00
11:55 PM,48.2,43.7,84,30.08,10.0,NW,10.4,-,N/A,,Clear,320,2013-05-09 04:55:00